User: anonymous   Login
Location: Unspecified
(0.0000°N, 0.0000°E)
Time: 18:54:19
(UTC+00:00)
Language:

KMS 4 - Orbit

View from above orbital plane
View from above orbital plane
View from above satellite
View from above satellite

Ground track
Ground track

The orbit data is extracted from the following two-line orbital elements,

1 41332U 16009A   17084.94932647 +.00002335 +00000-0 +82035-4 0  9998
2 41332 097.4687 142.5835 0024128 317.2605 042.6759 15.30169414063090
Epoch (UTC): 25 March 2017 22:47:01
Eccentricity: 0.0024128
inclination: 97.4687°
perigee height: 459 km
apogee height: 492 km
right ascension of ascending node: 142.5835°
argument of perigee: 317.2605°
revolutions per day: 15.30169414
mean anomaly at epoch: 42.6759°
orbit number at epoch: 6309

The dashed part of the orbit path shows where the satellite is in the earth's shadow,  

DLR